TimeEDT,TemperatureF,Dew PointF,Humidity,Sea Level PressureIn,VisibilityMPH,Wind Direction,Wind SpeedMPH,Gust SpeedMPH,PrecipitationIn,Events,Conditions,WindDirDegrees,DateUTC
12:15 AM,75.2,71.6,89,29.91,7.0,South,5.8,-,N/A,,Clear,190,2013-09-10 04:15:00
12:36 AM,75.2,71.6,89,29.91,10.0,South,6.9,-,N/A,,Clear,190,2013-09-10 04:36:00
12:56 AM,75.2,71.6,89,29.91,10.0,SSW,5.8,-,N/A,,Clear,200,2013-09-10 04:56:00
1:16 AM,77.0,71.6,83,29.91,10.0,SSW,6.9,-,N/A,,Clear,200,2013-09-10 05:16:00
1:36 AM,77.0,71.6,83,29.91,10.0,SSW,6.9,-,N/A,,Clear,200,2013-09-10 05:36:00
1:56 AM,78.8,71.6,78,29.91,10.0,SSW,6.9,-,N/A,,Clear,210,2013-09-10 05:56:00
2:16 AM,78.8,71.6,78,29.91,10.0,SSW,6.9,-,N/A,,Clear,210,2013-09-10 06:16:00
2:36 AM,78.8,71.6,78,29.91,10.0,SSW,6.9,-,N/A,,Clear,200,2013-09-10 06:36:00
2:56 AM,80.6,71.6,74,29.91,10.0,SW,8.1,-,N/A,,Clear,220,2013-09-10 06:56:00
3:16 AM,80.6,73.4,79,29.92,10.0,SW,10.4,16.1,N/A,,Clear,230,2013-09-10 07:16:00
3:36 AM,80.6,73.4,79,29.92,10.0,SW,10.4,17.3,N/A,,Clear,230,2013-09-10 07:36:00
3:52 AM,80.6,73.4,79,29.92,10.0,SW,9.2,-,N/A,,Clear,230,2013-09-10 07:52:00
4:12 AM,78.8,73.4,83,29.93,10.0,SW,12.7,-,N/A,,Clear,230,2013-09-10 08:12:00
4:32 AM,78.8,73.4,83,29.93,7.0,WSW,9.2,16.1,N/A,,Clear,240,2013-09-10 08:32:00
4:52 AM,78.8,73.4,83,29.94,7.0,WSW,9.2,-,N/A,,Clear,240,2013-09-10 08:52:00
5:12 AM,78.8,73.4,83,29.94,7.0,WSW,8.1,-,N/A,,Clear,240,2013-09-10 09:12:00
5:32 AM,78.8,73.4,83,29.95,7.0,WSW,8.1,-,N/A,,Clear,240,2013-09-10 09:32:00
5:52 AM,77.0,73.4,89,29.95,7.0,WSW,10.4,-,N/A,,Clear,240,2013-09-10 09:52:00
6:12 AM,77.0,73.4,89,29.95,7.0,WSW,9.2,-,N/A,,Clear,240,2013-09-10 10:12:00
6:32 AM,77.0,73.4,89,29.96,7.0,SW,8.1,-,N/A,,Clear,230,2013-09-10 10:32:00
6:52 AM,77.0,73.4,89,29.96,7.0,WSW,9.2,-,N/A,,Clear,240,2013-09-10 10:52:00
7:13 AM,78.8,73.4,83,29.96,7.0,WSW,10.4,-,N/A,,Clear,240,2013-09-10 11:13:00
7:33 AM,78.8,73.4,83,29.97,5.0,WSW,9.2,-,N/A,,Haze,240,2013-09-10 11:33:00
7:53 AM,78.8,73.4,83,29.97,5.0,WSW,9.2,-,N/A,,Clear,240,2013-09-10 11:53:00
8:13 AM,78.8,73.4,83,29.98,5.0,WSW,9.2,-,N/A,,Haze,240,2013-09-10 12:13:00
8:33 AM,78.8,73.4,83,29.98,7.0,WSW,10.4,-,N/A,,Clear,250,2013-09-10 12:33:00
8:53 AM,80.6,73.4,79,29.98,7.0,WSW,10.4,-,N/A,,Clear,250,2013-09-10 12:53:00
9:13 AM,80.6,75.2,84,29.99,7.0,WSW,9.2,-,N/A,,Clear,240,2013-09-10 13:13:00
9:33 AM,82.4,75.2,79,29.99,7.0,WSW,10.4,-,N/A,,Clear,250,2013-09-10 13:33:00
9:53 AM,82.4,75.2,79,29.99,7.0,WSW,10.4,17.3,N/A,,Clear,250,2013-09-10 13:53:00
10:14 AM,84.2,75.2,74,30.00,7.0,WSW,10.4,-,N/A,,Clear,250,2013-09-10 14:14:00
10:34 AM,84.2,75.2,74,30.00,7.0,WSW,10.4,-,N/A,,Clear,240,2013-09-10 14:34:00
10:54 AM,86.0,75.2,70,30.00,10.0,WSW,9.2,17.3,N/A,,Clear,240,2013-09-10 14:54:00
11:14 AM,87.8,75.2,66,30.00,10.0,WSW,10.4,16.1,N/A,,Clear,250,2013-09-10 15:14:00
11:34 AM,87.8,75.2,66,30.00,10.0,WSW,11.5,-,N/A,,Clear,240,2013-09-10 15:34:00
11:54 AM,87.8,73.4,62,30.01,10.0,WSW,11.5,-,N/A,,Clear,250,2013-09-10 15:54:00
12:14 PM,89.6,75.2,62,30.01,10.0,West,12.7,-,N/A,,Clear,260,2013-09-10 16:14:00
12:34 PM,89.6,75.2,62,30.00,10.0,WSW,11.5,17.3,N/A,,Clear,250,2013-09-10 16:34:00
12:54 PM,91.4,75.2,59,30.00,10.0,WSW,9.2,-,N/A,,Clear,250,2013-09-10 16:54:00
1:14 PM,91.4,75.2,59,30.00,10.0,West,9.2,-,N/A,,Clear,260,2013-09-10 17:14:00
1:35 PM,93.2,73.4,52,30.00,10.0,West,11.5,-,N/A,,Clear,270,2013-09-10 17:35:00
1:55 PM,93.2,71.6,49,30.00,10.0,West,10.4,17.3,N/A,,Clear,260,2013-09-10 17:55:00
2:15 PM,93.2,73.4,52,30.00,10.0,WSW,9.2,-,N/A,,Clear,250,2013-09-10 18:15:00
2:35 PM,93.2,71.6,49,30.00,10.0,West,10.4,-,N/A,,Clear,260,2013-09-10 18:35:00
2:55 PM,93.2,69.8,46,29.99,10.0,West,15.0,-,N/A,,Clear,270,2013-09-10 18:55:00
3:15 PM,95.0,69.8,44,29.99,10.0,West,12.7,16.1,N/A,,Clear,280,2013-09-10 19:15:00
3:35 PM,95.0,69.8,44,29.99,10.0,West,8.1,-,N/A,,Clear,260,2013-09-10 19:35:00
3:55 PM,95.0,71.6,47,29.98,10.0,West,8.1,-,N/A,,Clear,280,2013-09-10 19:55:00
4:15 PM,95.0,71.6,47,29.98,10.0,West,8.1,-,N/A,,Clear,270,2013-09-10 20:15:00
4:36 PM,95.0,69.8,44,29.98,10.0,West,9.2,-,N/A,,Clear,260,2013-09-10 20:36:00
4:56 PM,95.0,69.8,44,29.98,10.0,West,6.9,-,N/A,,Clear,270,2013-09-10 20:56:00
5:16 PM,93.2,71.6,49,29.97,10.0,NW,4.6,-,N/A,,Clear,310,2013-09-10 21:16:00
5:36 PM,93.2,71.6,49,29.97,10.0,NW,5.8,-,N/A,,Clear,320,2013-09-10 21:36:00
5:56 PM,93.2,73.4,52,29.97,10.0,WNW,3.5,-,N/A,,Clear,300,2013-09-10 21:56:00
6:16 PM,93.2,75.2,56,29.98,10.0,Calm,Calm,-,N/A,,Clear,0,2013-09-10 22:16:00
6:36 PM,91.4,75.2,59,29.98,10.0,Calm,Calm,-,N/A,,Clear,0,2013-09-10 22:36:00
6:56 PM,91.4,75.2,59,29.98,10.0,Calm,Calm,-,N/A,,Clear,0,2013-09-10 22:56:00
7:16 PM,89.6,73.4,59,29.98,10.0,Calm,Calm,-,N/A,,Clear,0,2013-09-10 23:16:00
7:36 PM,87.8,73.4,62,29.99,10.0,SSW,4.6,-,N/A,,Clear,200,2013-09-10 23:36:00
7:52 PM,86.0,71.6,62,29.99,10.0,SSW,4.6,-,N/A,,Clear,210,2013-09-10 23:52:00
8:12 PM,84.2,71.6,66,29.99,10.0,SSW,4.6,-,N/A,,Clear,210,2013-09-11 00:12:00
8:32 PM,84.2,69.8,62,30.00,10.0,SW,4.6,-,N/A,,Clear,220,2013-09-11 00:32:00
8:52 PM,82.4,69.8,66,30.01,10.0,SW,5.8,-,N/A,,Clear,220,2013-09-11 00:52:00
9:12 PM,80.6,69.8,70,30.02,10.0,West,4.6,-,N/A,,Clear,260,2013-09-11 01:12:00
9:32 PM,82.4,68.0,62,30.03,10.0,SW,3.5,-,N/A,,Clear,230,2013-09-11 01:32:00
9:52 PM,80.6,68.0,65,30.02,10.0,Calm,Calm,-,N/A,,Clear,0,2013-09-11 01:52:00
10:12 PM,78.8,68.0,69,30.02,10.0,Calm,Calm,-,N/A,,Clear,0,2013-09-11 02:12:00
10:32 PM,78.8,68.0,69,30.02,10.0,SW,4.6,-,N/A,,Clear,220,2013-09-11 02:32:00
10:52 PM,78.8,68.0,69,30.02,10.0,SSW,4.6,-,N/A,,Clear,210,2013-09-11 02:52:00
11:13 PM,80.6,66.2,61,30.03,10.0,SSW,5.8,-,N/A,,Clear,210,2013-09-11 03:13:00
11:33 PM,80.6,66.2,61,30.02,10.0,SSW,4.6,-,N/A,,Clear,200,2013-09-11 03:33:00
11:53 PM,78.8,68.0,69,30.02,10.0,South,3.5,-,N/A,,Clear,190,2013-09-11 03:53:00